• MPC Preparation (Info)

  • MPEC 2015-B10 : 2015 AE44

    The following Minor Planet Electronic Circular may be linked-to from your own Web pages, but must not otherwise be redistributed electronically.

    A form allowing access to any MPEC is at the bottom of this page.


    Read MPEC 2015-B09 Read MPEC 2015-B11


    M.P.E.C. 2015-B10                                Issued 2015 Jan. 16, 15:23 UT
    
         The Minor Planet Electronic Circulars contain information on unusual
             minor planets and routine data on comets.  They are published
       on behalf of Commission 20 of the International Astronomical Union by the
              Minor Planet Center, Smithsonian Astrophysical Observatory,
                              Cambridge, MA 02138, U.S.A.
    
                 Prepared using the Tamkin Foundation Computer Network
    
                                  MPC@CFA.HARVARD.EDU
                URL https://www.minorplanetcenter.net/    ISSN 1523-6714
    
                                       2015 AE44
    
    Observations:
         K15A44E* C2015 01 14.57785 11 44 43.791+39 44 24.29         19.6 rLEB010F51
         K15A44E  C2015 01 14.59006 11 44 43.383+39 41 56.92         20.3 rLEB010F51
         K15A44E  C2015 01 14.60243 11 44 42.925+39 39 24.69         20.2 rLEB010F51
         K15A44E  C2015 01 14.61447 11 44 42.494+39 36 58.42         20.3 rLEB010F51
         K15A44E KC2015 01 15.07323 11 45 17.84 +38 02 24.2          19.5 VqEB010958
         K15A44E KC2015 01 15.07995 11 45 17.85 +38 01 05.1          19.8 VqEB010958
         K15A44E KC2015 01 15.08668 11 45 17.82 +37 59 45.6          19.5 VqEB010958
         K15A44E  C2015 01 15.10058 11 45 14.86 +37 56 45.2          18.7 VMEB010033
         K15A44E  C2015 01 15.10544 11 45 14.78 +37 55 45.9          18.8 VMEB010033
         K15A44E  C2015 01 15.13289 11 45 14.58 +37 50 17.4          19.3 VMEB010033
         K15A44E  C2015 01 15.13777 11 45 14.49 +37 49 18.1          19.3 VMEB010033
         K15A44E KC2015 01 15.36245711 45 30.72 +37 04 37.5          19.7 VuEB010H21
         K15A44E KC2015 01 15.36472 11 45 32.30 +37 04 07.3          19.4 RqEB010H36
         K15A44E KC2015 01 15.36600111 45 30.66 +37 03 55.3          19.7 VuEB010H21
         K15A44E KC2015 01 15.36964411 45 30.59 +37 03 12.1          19.7 VuEB010H21
         K15A44E KC2015 01 15.37115 11 45 32.19 +37 02 52.0          19.6 RqEB010H36
         K15A44E KC2015 01 15.37328711 45 30.49 +37 02 28.6          19.7 VuEB010H21
         K15A44E KC2015 01 15.37692911 45 30.44 +37 01 45.1          19.7 VuEB010H21
         K15A44E KC2015 01 15.38291 11 45 31.95 +37 00 32.8          19.1 RqEB010H36
         K15A44E KC2015 01 15.39684 11 45 31.63 +36 57 47.6          19.4 RqEB010H36
         K15A44E KC2015 01 15.40326 11 45 31.47 +36 56 31.0          19.0 RqEB010H36
         K15A44E KC2015 01 15.44433911 45 28.68 +36 48 15.6          19.8 VuEB010H21
         K15A44E KC2015 01 15.44799711 45 28.60 +36 47 31.4          19.8 VuEB010H21
         K15A44E KC2015 01 15.45156911 45 28.51 +36 46 47.9          19.7 VuEB010H21
         K15A44E KC2015 01 15.55175 11 45 30.64 +36 27 01.9          19.2 RoEB010291
         K15A44E KC2015 01 15.55254 11 45 30.54 +36 26 53.4          19.6 RoEB010291
         K15A44E KC2015 01 15.55333 11 45 30.52 +36 26 43.3          19.5 RoEB010291
         K15A44E KC2015 01 16.41800 11 46 16.44 +33 35 16.8          19.4 RqEB010H36
         K15A44E KC2015 01 16.42449311 46 14.59 +33 33 58.8          19.9 VuEB010H21
         K15A44E KC2015 01 16.42831711 46 14.45 +33 33 13.9          19.4 VuEB010H21
         K15A44E KC2015 01 16.43081 11 46 15.95 +33 32 47.0          19.3 RqEB010H36
         K15A44E KC2015 01 16.43224611 46 14.31 +33 32 27.4          19.4 VuEB010H21
         K15A44E KC2015 01 16.45634 11 46 15.07 +33 27 46.1          19.5 RqEB010H36
    
    Observer details:
    033 Karl Schwarzschild Observatory, Tautenburg.  Observer B. Stecklum.  1.34-m
        f/4 Schmidt + CCD.
    291 LPL/Spacewatch II.  Observer T. H. Bressi.  1.8-m f/2.7 reflector + CCD.
    958 Observatoire de Dax.  Observers P. Dupouy, J. B. de Vanssay.  Measurer
        P. Dupouy.  0.43-m f/2.7 reflector + CCD.
    F51 Pan-STARRS 1, Haleakala.  Observers B. Gibson, T. Goggia, N. Primak,
        A. Schultz, M. Willman.  Measurers K. Chambers, S. Chastel, L. Denneau,
        H. Flewelling, M. Huber, E. Magnier, E. Schunova, R. Wainscoat, C. Waters,
        R. Weryk.  1.8-m Ritchey-Chretien + CCD.
    H21 Astronomical Research Observatory, Westfield.  Observers T. Linder,
        R. Holmes.  Measurers T. Linder, L. Buzzi, S. Foglia, T. Vorobjov.  0.61-m
        f/4.5 astrograph + CCD, 0.76-m f/3.0 astrograph + CCD.
    H36 Sandlot Observatory, Scranton.  Observer G. Hug.  0.56-m reflector + CCD.
    
    Orbital elements:
    2015 AE44                                                Earth MOID = 0.0355 AU
    Epoch 2014 Dec. 9.0 TT = JDT 2457000.5                  MPC
    M 343.83132              (2000.0)            P               Q
    n   0.54135390     Peri.  156.06859     -0.30663391     -0.94946155
    a   1.4910145      Node   311.71420     +0.85814654     -0.24528291
    e   0.3234543      Incl.    5.15494     +0.41177684     -0.19585468
    P   1.82           H   24.6           G   0.15           U   7
    Residuals in seconds of arc
    150114 F51  0.0   0.5+    150115 H21  0.3-  0.2+    150115 H21  0.1-  0.4+
    150114 F51  0.2+  0.9+    150115 H36  0.1-  0.7-    150115 H21  0.1-  0.2+
    150114 F51  0.1-  1.0-    150115 H21  0.1-  0.1+    150115 291  0.9+  0.4-
    150114 F51  0.1-  0.3-    150115 H21  0.0   0.1+    150115 291  0.1-  0.8+
    150115 958  0.3-  1.2-    150115 H36  0.1+  0.1-    150115 291  0.1-  0.4+
    150115 958  0.1+  1.0-    150115 H21  0.2-  0.1-    150116 H36  0.2+  0.2-
    150115 958  0.3+  1.0-    150115 H21  0.2+  0.2-    150116 H21  0.1-  0.0
    150115 033  0.2+  0.3+    150115 H36  0.2+  0.2-    150116 H21  0.2-  0.2+
    150115 033  0.3-  0.7-    150115 H36  0.2+  0.0     150116 H36  0.3-  0.0
    150115 033  0.0   1.4+    150115 H36  0.2+  0.2-    150116 H21  0.2-  0.0
    150115 033  0.5-  1.0+    150115 H21  0.2-  0.2+    150116 H36  0.1+  0.4-
    
    Ephemeris:
    2015 AE44                a,e,i = 1.49, 0.32, 5                   q = 1.0087
    Date    TT    R. A. (2000) Decl.     Delta      r     Elong.  Phase     V
    2014 12 17    01 53 02.1 +73 10 59   0.08365 1.0307   121.8    54.2    21.3
    ...
    2015 01 01    10 01 33.0 +80 26 53   0.05458 1.0109   119.0    58.3    20.4
    ...
    2015 01 09    11 33 03.8 +58 40 15   0.04594 1.0088   122.5    55.3    19.9
    ...
    2015 01 15    11 45 06.5 +38 17 58   0.04543 1.0111   126.1    51.8    19.8
    2015 01 16    11 45 57.5 +34 57 58   0.04590 1.0118   126.7    51.2    19.8
    2015 01 17    11 46 36.1 +31 42 47   0.04652 1.0126   127.2    50.7    19.8
    ...
    2015 01 23    11 47 19.9 +14 39 36   0.05312 1.0193   130.1    47.6    20.1
    ...
    2015 01 31    11 43 28.1 -00 43 02   0.06744 1.0331   134.0    43.3    20.5
    ...
    2015 02 15    11 29 23.9 -14 11 05   0.1031  1.0725   143.7    33.0    21.2
    
    A. U. Tomatic                (C) Copyright 2015 MPC           M.P.E.C. 2015-B10
    

    Read MPEC 2015-B09 Read MPEC 2015-B11


    MPEC number:

    Enter an MPEC number in one of the following forms:

    • 1997-B01 (the full form)
    • J97B01 (the packed version of the full form)
    • B01 (the abbreviated form)